Simultaneous Nadir Overpasses (SNOs) Predictions

Prediction of SNOs between NOAA-20 and METOP-B Satellite Orbit:

Table of predicted SNOs for the next 14.0 days since TLE Epoch: 8/2/2019
Index Date (NOAA-20) Time (NOAA-20) Lat,Lon (NOAA-20) SZA (NOAA-20 ) Date (METOP-B) Time (METOP-B) Lat,Lon (METOP-B) SZA (METOP-B ) Distance(km) Time Diff (sec)
1 08/02/2019 22:24:21 72.73,-164.31 55.28 08/02/2019 22:24:05 72.73,-164.30 55.29 0.34 16
2 08/02/2019 23:15:04 -72.70, 3.08 124.75 08/02/2019 23:14:47 -72.71, 2.97 124.73 3.49 17
3 08/03/2019 00:05:51 72.74, 170.30 55.31 08/03/2019 00:05:27 72.71, 170.32 55.29 3.20 24
4 08/03/2019 00:56:34 -72.71, -22.31 124.72 08/03/2019 00:56:08 -72.74, -22.30 124.69 3.42 26
5 08/03/2019 01:47:20 72.70, 145.01 55.28 08/03/2019 01:46:49 72.69, 144.93 55.29 2.85 31
6 08/03/2019 02:38:04 -72.71, -47.70 124.70 08/03/2019 02:37:30 -72.72, -47.69 124.69 0.53 34
7 08/03/2019 03:28:50 72.71, 119.63 55.31 08/03/2019 03:28:10 72.72, 119.65 55.33 1.96 40
8 08/03/2019 04:19:34 -72.72, -73.09 124.67 08/03/2019 04:18:52 -72.70, -73.07 124.69 2.99 42
9 08/03/2019 05:10:20 72.71, 94.24 55.33 08/03/2019 05:09:32 72.70, 94.27 55.33 1.80 48
10 08/03/2019 06:01:03 -72.68, -98.38 124.70 08/03/2019 06:00:14 -72.67, -98.46 124.69 2.64 49
11 08/03/2019 06:51:49 72.67, 68.95 55.30 08/03/2019 06:50:54 72.68, 68.88 55.33 2.43 55
12 08/03/2019 07:42:33 -72.69,-123.77 124.67 08/03/2019 07:41:35 -72.70,-123.73 124.64 2.26 58
13 08/03/2019 08:33:19 72.68, 43.56 55.33 08/03/2019 08:32:16 72.66, 43.50 55.33 2.98 63
14 08/03/2019 09:24:03 -72.69,-149.16 124.65 08/03/2019 09:22:57 -72.68,-149.12 124.64 1.69 66
15 08/03/2019 10:14:49 72.68, 18.17 55.36 08/03/2019 10:13:37 72.69, 18.22 55.37 1.65 72
16 08/03/2019 11:05:32 -72.65,-174.44 124.68 08/03/2019 11:04:19 -72.66,-174.50 124.64 2.41 73
17 08/03/2019 11:56:15 72.49, -6.80 55.16 08/03/2019 11:55:02 72.51, -7.47 55.24 22.54 73
18 08/03/2019 12:46:57 -72.40, 160.68 124.93 08/03/2019 12:45:45 -72.44, 159.71 124.82 33.02 72
19 08/03/2019 13:37:39 72.19, -31.59 54.85 08/03/2019 13:36:30 72.18, -33.46 54.98 63.69 69
20 08/03/2019 14:28:21 -72.10, 135.89 125.24 08/03/2019 14:27:13 -72.11, 133.73 125.08 73.94 68




NCC Satellite Simultaneous Nadir Overpasses (SNOs) Prediction Service
